[[{"header":{"parameterUnit":"m.s-1","parameterCategory":1,"la1":30.2991,"la2":30.254,"lo1":-89.0895,"lo2":-89.0444,"dy":0.0017,"dx":0.0017,"nx":28,"ny":28,"refTime":"2025-01-08T09:00:00:Z","depth":0,"parameterNumber":2,"parameterNumberName":"U-component_of_WINDS"},"data":[0,0,0,0,0,0,0,0,0,0,0,0,0,0,0,0,0,0,0,0,0,0,0,0,0,0,0,0,0,0,0,0,0,0,0,0,0,0,0,0,0,0,0,0,0,0,0,0,0,0,0,0,0,0,0,0,0,0,-2.3525,-2.3525,0,-2.348,-2.3479,-2.3479,-2.3377,-2.3375,-2.3373,-2.3371,-2.3328,-2.3329,-2.333,0,0,0,0,0,0,0,0,0,0,0,0,0,-2.353,-2.3531,-2.3526,-2.3525,-2.3524,-2.348,-2.3479,-2.3479,-2.3378,-2.3375,-2.3373,-2.337,-2.3328,-2.3329,-2.333,0,0,0,0,0,0,0,0,0,0,0,0,0,-2.3511,-2.3531,-2.3526,-2.3469,-2.3463,-2.348,-2.3479,-2.3478,-2.3378,-2.3375,-2.3372,-2.3369,-2.3328,-2.3329,-2.333,-2.34,0,0,-2.3334,-2.3334,0,0,0,0,0,0,0,0,-2.3512,-2.3511,-2.3478,-2.3473,-2.3466,-2.3431,-2.3465,-2.3452,-2.3379,-2.3411,-2.3371,-2.3368,-2.3365,-2.3363,-2.3362,-2.3398,-2.3396,-2.3334,-2.3335,-2.3335,-2.3335,0,0,0,0,0,0,0,-2.3514,-2.3512,-2.3507,-2.3477,-2.347,-2.3447,-2.3441,-2.3462,-2.3406,-2.3408,-2.34,-2.3396,-2.3362,-2.3361,-2.336,-2.3396,-2.3334,-2.3335,-2.3336,-2.3336,-2.349,-2.3494,0,0,0,0,0,0,-2.3523,-2.3514,-2.3509,-2.3506,-2.3482,-2.3449,-2.3442,-2.3446,-2.3406,-2.3396,-2.3399,-2.3391,-2.336,-2.3359,-2.3358,-2.3439,-2.3335,-2.3336,-2.3337,-2.3487,-2.3491,-2.3495,0,0,0,0,0,0,-2.3523,-2.3523,-2.3511,-2.3508,-2.3505,-2.3453,-2.3457,-2.3446,-2.3445,-2.3399,-2.3389,-2.3408,-2.3358,-2.3356,-2.3391,-2.3436,-2.3337,-2.3338,-2.3483,-2.3488,-2.3493,-2.3602,0,0,0,0,0,0,-2.3524,-2.3524,-2.3549,-2.3509,-2.3505,-2.3543,-2.346,-2.3448,-2.3447,-2.3437,-2.3405,-2.3396,-2.3355,-2.339,-2.3392,-2.3436,-2.3339,-2.3479,-2.3485,-2.3491,-2.3594,-2.361,-2.3624,0,0,0,0,0,-2.3524,-2.3581,-2.355,-2.355,-2.3535,-2.3546,-2.3544,-2.3494,-2.3451,-2.3477,-2.3447,-2.3397,-2.3431,-2.3394,-2.3396,-2.3441,-2.3476,-2.3484,-2.3491,-2.3587,-2.3607,-2.3623,0,0,0,0,0,0,-2.3628,-2.3575,-2.354,-2.3586,-2.3571,-2.3529,-2.3559,-2.3516,-2.3514,-2.3505,-2.3445,-2.3438,-2.3482,-2.3464,-2.3424,-2.3508,-2.3445,-2.3454,-2.3518,-2.3536,-2.3551,-2.3555,-2.334,0,0,0,0,0,-2.3656,-2.3668,-2.3621,-2.3667,-2.3661,-2.3612,-2.3615,-2.3578,-2.3561,-2.3554,-2.3527,-2.3514,-2.3521,-2.3527,-2.3532,-2.3591,-2.3584,-2.3623,-2.3638,-2.365,-2.3659,-2.3692,-2.3709,-2.352,-2.352,-2.352,0,0,-2.3715,-2.3687,-2.3698,-2.3687,-2.3671,-2.3687,-2.3607,-2.3626,-2.3638,-2.3557,-2.3588,-2.3569,-2.355,-2.3598,-2.3617,-2.3585,-2.371,-2.366,-2.367,-2.3672,-2.3701,-2.3719,-2.3735,-2.3525,-2.3524,-2.3523,0,0,-2.3829,-2.3809,-2.3845,-2.3831,-2.3808,-2.3775,-2.3784,-2.3749,-2.3732,-2.3762,-2.3703,-2.3717,-2.373,-2.372,-2.3717,-2.383,-2.3785,-2.3833,-2.3912,-2.3944,-2.3959,-2.3972,-2.4015,-2.4031,-2.3842,-2.3842,-2.3842,0,-2.3905,-2.3925,-2.3869,-2.3893,-2.3891,-2.3818,-2.3856,-2.3845,-2.3826,-2.3827,-2.379,-2.3807,-2.3789,-2.3835,-2.3863,-2.3862,-2.3872,-2.3837,-2.3961,-2.3974,-2.3985,-2.4026,-2.4042,-2.3848,-2.3847,-2.3847,-2.3846,0,-2.4021,-2.4036,-2.4068,-2.405,-2.4052,-2.4082,-2.4034,-2.4042,-2.4006,-2.3978,-2.4011,-2.3987,-2.3986,-2.3994,-2.3959,-2.4036,-2.4017,-2.3972,-2.3908,-2.401,-2.4047,-2.4062,-2.3857,-2.3855,-2.3853,-2.3851,0,0,-2.4199,-2.4151,-2.4164,-2.4157,-2.4127,-2.4138,-2.4167,-2.4165,-2.4175,-2.4164,-2.4189,-2.4203,-2.4162,-2.4158,-2.4121,-2.415,-2.4245,-2.4101,-2.41,-2.4131,-2.4331,-2.4367,-2.4385,-2.4214,-2.4217,-2.4219,-2.4334,0,-2.4308,-2.4353,-2.4305,-2.4361,-2.4375,-2.4307,-2.4333,-2.4318,-2.4294,-2.4304,-2.4276,-2.4288,-2.4232,-2.423,-2.4255,-2.4228,-2.4284,-2.4218,-2.4239,-2.424,-2.4247,-2.4404,-2.4441,-2.4551,-2.4348,-2.435,-2.4352,0,-2.4441,-2.4437,-2.4494,-2.4463,-2.4467,-2.4491,-2.4487,-2.4496,-2.448,-2.446,-2.4457,-2.4413,-2.4441,-2.4378,-2.4418,-2.4374,-2.438,-2.4368,-2.4371,-2.4373,-2.4303,-2.4412,-2.4584,-2.4601,-2.4373,-2.4372,-2.437,0,-2.4569,-2.4577,-2.4613,-2.4608,-2.4572,-2.459,-2.4576,-2.4556,-2.456,-2.4557,-2.4559,-2.456,-2.4561,-2.4564,-2.4522,-2.4479,-2.4568,-2.4501,-2.4555,-2.4556,-2.4577,-2.4577,-2.4755,-2.4578,-2.4578,-2.4578,-2.4577,0,-2.4697,-2.4735,-2.467,-2.4692,-2.4734,-2.4679,-2.4723,-2.4702,-2.4685,-2.4704,-2.4645,-2.4665,-2.4607,-2.4621,-2.4589,-2.4628,-2.4629,-2.4615,-2.4607,-2.4621,-2.4624,-2.4625,-2.4618,-2.4582,-2.4581,-2.458,-2.458,0,-2.4847,-2.4804,-2.4839,-2.4802,-2.4794,-2.4827,-2.4796,-2.4816,-2.4788,-2.4812,-2.4815,-2.4771,-2.4785,-2.4743,-2.475,-2.4728,-2.4787,-2.4765,-2.4792,-2.4786,-2.4844,-2.484,-2.5031,-2.5054,-2.4861,-2.4863,-2.4864,0,-2.4932,-2.496,-2.4926,-2.4934,-2.4923,-2.4936,-2.4939,-2.4887,-2.4893,-2.4878,-2.4901,-2.4909,-2.4913,-2.4939,-2.4909,-2.4915,-2.4894,-2.496,-2.4894,-2.491,-2.4898,-2.4897,-2.4901,-2.4975,-2.4977,-2.4979,-2.498,0,-2.5088,-2.5066,-2.5072,-2.5072,-2.5077,-2.5074,-2.5067,-2.5077,-2.5022,-2.5032,-2.5045,-2.5048,-2.5056,-2.5066,-2.5066,-2.5053,-2.501,-2.5001,-2.5015,-2.5031,-2.5047,-2.5042,-2.4832,-2.4997,-2.4996,-2.4995,-2.4994,-2.4993,-2.521,-2.5232,-2.5213,-2.5222,-2.5211,-2.5207,-2.5225,-2.5199,-2.5208,-2.521,-2.5179,-2.5199,-2.5184,-2.5179,-2.5172,-2.5188,-2.5158,-2.5176,-2.5181,-2.5187,-2.5198,-2.5043,-2.5188,-2.5187,-2.5187,-2.5186,-2.5186,0,-2.5365,-2.535,-2.5358,-2.5351,-2.5359,-2.5315,-2.5306,-2.5316,-2.5334,-2.5324,-2.5329,-2.5346,-2.5356,-2.5327,-2.5334,-2.5353,-2.5333,-2.5357,-2.5356,-2.5354,-2.5224,-2.5213,-2.5373,-2.5373,-2.5373,-2.5373,-2.5373,-2.5373,-2.5447,-2.5484,-2.546,-2.5492,-2.5476,-2.5495,-2.5494,-2.5491,-2.5482,-2.5503,-2.5511,-2.5491,-2.5474,-2.548,-2.5488,-2.548,-2.5486,-2.5518,-2.5503,-2.5381,-2.5363,-2.5346,-2.5335,-2.5519,-2.5519,-2.5632,-2.5633,-2.5634]},{"header":{"parameterUnit":"m.s-1","parameterCategory":1,"la1":30.2991,"la2":30.254,"lo1":-89.0895,"lo2":-89.0444,"dy":0.0017,"dx":0.0017,"nx":28,"ny":28,"refTime":"2025-01-08T09:00:00:Z","depth":0,"parameterNumber":3,"parameterNumberName":"V-component_of_WINDS"},"data":[0,0,0,0,0,0,0,0,0,0,0,0,0,0,0,0,0,0,0,0,0,0,0,0,0,0,0,0,0,0,0,0,0,0,0,0,0,0,0,0,0,0,0,0,0,0,0,0,0,0,0,0,0,0,0,0,0,0,-0.4522,-0.4522,0,-0.4558,-0.4558,-0.4558,-0.4553,-0.4553,-0.4552,-0.4551,-0.4588,-0.4589,-0.4591,0,0,0,0,0,0,0,0,0,0,0,0,0,-0.4446,-0.4448,-0.4521,-0.4522,-0.4522,-0.4557,-0.4558,-0.4558,-0.4553,-0.4553,-0.4552,-0.4551,-0.4587,-0.4589,-0.4591,0,0,0,0,0,0,0,0,0,0,0,0,0,-0.448,-0.4448,-0.4521,-0.4524,-0.4525,-0.4557,-0.4558,-0.4559,-0.4554,-0.4553,-0.4552,-0.4551,-0.4587,-0.4589,-0.4591,-0.4623,0,0,-0.4598,-0.4599,0,0,0,0,0,0,0,0,-0.4478,-0.4483,-0.4523,-0.4524,-0.4525,-0.455,-0.4545,-0.458,-0.4554,-0.4543,-0.4551,-0.455,-0.4576,-0.4579,-0.4588,-0.4625,-0.4626,-0.4598,-0.46,-0.4601,-0.4601,0,0,0,0,0,0,0,-0.4476,-0.4482,-0.4536,-0.4524,-0.4525,-0.4523,-0.4527,-0.4551,-0.4564,-0.4543,-0.4543,-0.4548,-0.4576,-0.4585,-0.4588,-0.4627,-0.4598,-0.46,-0.4602,-0.4602,-0.4691,-0.4691,0,0,0,0,0,0,-0.4473,-0.448,-0.4535,-0.4537,-0.4499,-0.4525,-0.4529,-0.4543,-0.4563,-0.4566,-0.4548,-0.4547,-0.4582,-0.4586,-0.459,-0.4628,-0.4601,-0.4603,-0.4604,-0.469,-0.4691,-0.4692,0,0,0,0,0,0,-0.4472,-0.4478,-0.4533,-0.4508,-0.4515,-0.4527,-0.4542,-0.4544,-0.4553,-0.4567,-0.4569,-0.4556,-0.4581,-0.4586,-0.4615,-0.4629,-0.4604,-0.4606,-0.4688,-0.469,-0.4691,-0.4705,0,0,0,0,0,0,-0.447,-0.4478,-0.4491,-0.4509,-0.4516,-0.4558,-0.4543,-0.4545,-0.4557,-0.4556,-0.4575,-0.4577,-0.4581,-0.4611,-0.4617,-0.4632,-0.4608,-0.4687,-0.4689,-0.4691,-0.4703,-0.4707,-0.471,0,0,0,0,0,-0.4467,-0.4493,-0.4491,-0.4498,-0.4533,-0.4559,-0.4563,-0.4568,-0.4559,-0.4571,-0.458,-0.4576,-0.4626,-0.4614,-0.462,-0.4636,-0.4686,-0.4689,-0.4691,-0.4702,-0.4706,-0.471,0,0,0,0,0,0,-0.4477,-0.4496,-0.4494,-0.4527,-0.4541,-0.4558,-0.4574,-0.4572,-0.459,-0.4588,-0.4593,-0.4597,-0.4625,-0.4633,-0.4619,-0.4668,-0.4655,-0.4659,-0.4661,-0.4666,-0.4669,-0.4666,-0.4609,0,0,0,0,0,-0.4483,-0.4503,-0.4518,-0.4545,-0.4553,-0.4562,-0.4574,-0.4576,-0.4591,-0.4597,-0.4608,-0.4622,-0.4641,-0.4654,-0.4672,-0.4704,-0.4708,-0.4718,-0.4721,-0.4724,-0.4727,-0.4744,-0.4748,-0.4699,-0.4699,-0.4699,0,0,-0.4495,-0.4508,-0.452,-0.4548,-0.4559,-0.4579,-0.4568,-0.459,-0.4604,-0.46,-0.4628,-0.4636,-0.4652,-0.4682,-0.4696,-0.469,-0.4741,-0.4727,-0.4729,-0.473,-0.4746,-0.4751,-0.4755,-0.47,-0.47,-0.47,0,0,-0.4528,-0.454,-0.4564,-0.4576,-0.4593,-0.4599,-0.4605,-0.4622,-0.4627,-0.4654,-0.4651,-0.4669,-0.4701,-0.4713,-0.4723,-0.4759,-0.4756,-0.4765,-0.4782,-0.4798,-0.4802,-0.4805,-0.4818,-0.4822,-0.4767,-0.4768,-0.4768,0,-0.4542,-0.4573,-0.4577,-0.4599,-0.461,-0.4608,-0.4631,-0.4642,-0.4665,-0.4672,-0.4665,-0.4706,-0.4716,-0.4749,-0.4757,-0.4766,-0.4772,-0.4763,-0.4801,-0.4804,-0.4808,-0.482,-0.4824,-0.4768,-0.4768,-0.4768,-0.4768,0,-0.4588,-0.4609,-0.4626,-0.4648,-0.4661,-0.4684,-0.4691,-0.4704,-0.4704,-0.4711,-0.4738,-0.475,-0.4771,-0.4778,-0.4779,-0.481,-0.4806,-0.48,-0.4787,-0.4813,-0.4824,-0.4829,-0.477,-0.4769,-0.4769,-0.4769,0,0,-0.463,-0.4652,-0.4659,-0.4668,-0.4686,-0.4703,-0.4724,-0.4744,-0.4755,-0.477,-0.4788,-0.4815,-0.4809,-0.4821,-0.4823,-0.4837,-0.4864,-0.4829,-0.4829,-0.4835,-0.4898,-0.4903,-0.4908,-0.4862,-0.4862,-0.4863,-0.4897,0,-0.4665,-0.4704,-0.4708,-0.4743,-0.4762,-0.4759,-0.4778,-0.4791,-0.4797,-0.4813,-0.482,-0.4839,-0.483,-0.4836,-0.485,-0.4858,-0.4877,-0.4855,-0.4878,-0.4879,-0.4875,-0.4914,-0.492,-0.4951,-0.4901,-0.4902,-0.4903,0,-0.4711,-0.4727,-0.4765,-0.478,-0.4788,-0.4805,-0.4823,-0.4839,-0.4853,-0.4856,-0.4868,-0.4868,-0.4889,-0.4875,-0.4905,-0.489,-0.4899,-0.4904,-0.4906,-0.4908,-0.4893,-0.4918,-0.4961,-0.4966,-0.491,-0.4909,-0.4909,0,-0.4737,-0.4769,-0.4795,-0.4803,-0.4821,-0.4833,-0.4841,-0.4854,-0.4865,-0.4881,-0.4888,-0.4905,-0.4915,-0.4928,-0.4932,-0.4922,-0.4961,-0.4948,-0.4964,-0.4964,-0.4974,-0.4973,-0.5019,-0.4979,-0.4979,-0.4979,-0.4979,0,-0.4776,-0.4799,-0.4807,-0.4823,-0.4848,-0.4851,-0.4876,-0.4883,-0.4894,-0.4911,-0.4909,-0.4925,-0.4929,-0.4945,-0.4948,-0.4971,-0.4976,-0.4979,-0.4979,-0.4979,-0.4979,-0.4986,-0.4984,-0.498,-0.498,-0.498,-0.4979,0,-0.4811,-0.4817,-0.4845,-0.4859,-0.4863,-0.4881,-0.4893,-0.4908,-0.4913,-0.4934,-0.4939,-0.4948,-0.4966,-0.4971,-0.4994,-0.4996,-0.5024,-0.5022,-0.5019,-0.5019,-0.5035,-0.5034,-0.5088,-0.5095,-0.505,-0.505,-0.5051,0,-0.4835,-0.4853,-0.4869,-0.488,-0.4888,-0.4907,-0.4918,-0.4921,-0.4933,-0.495,-0.4962,-0.4981,-0.4996,-0.5026,-0.5033,-0.505,-0.5049,-0.5067,-0.5052,-0.5051,-0.5049,-0.5048,-0.505,-0.507,-0.507,-0.5071,-0.5071,0,-0.4878,-0.488,-0.4897,-0.4915,-0.4928,-0.4942,-0.4956,-0.4965,-0.4969,-0.4983,-0.5002,-0.5014,-0.5036,-0.5054,-0.5071,-0.5078,-0.5075,-0.5075,-0.508,-0.5081,-0.5078,-0.508,-0.5027,-0.5074,-0.5074,-0.5074,-0.5074,-0.5074,-0.4908,-0.4923,-0.4937,-0.4955,-0.4966,-0.4978,-0.4993,-0.4999,-0.5015,-0.5034,-0.5035,-0.5056,-0.5068,-0.509,-0.5098,-0.5114,-0.5109,-0.5115,-0.5117,-0.5119,-0.512,-0.5075,-0.5117,-0.5117,-0.5117,-0.5117,-0.5117,0,-0.4951,-0.4959,-0.4976,-0.4995,-0.5009,-0.5005,-0.5019,-0.5031,-0.505,-0.5061,-0.5076,-0.5098,-0.5115,-0.5123,-0.514,-0.5151,-0.515,-0.5155,-0.5155,-0.5156,-0.5124,-0.5119,-0.5156,-0.5156,-0.5156,-0.5156,-0.5156,-0.5156,-0.4975,-0.5,-0.5004,-0.5033,-0.5041,-0.5062,-0.507,-0.5081,-0.509,-0.5115,-0.5129,-0.5134,-0.5144,-0.5162,-0.5177,-0.5179,-0.5185,-0.5191,-0.5193,-0.5163,-0.5159,-0.5155,-0.515,-0.5193,-0.5193,-0.5223,-0.5224,-0.5224]}]]